FCBBFCPP

Guest
Details From FCBB - MAYA MAYA
To FCPP - POINTE NOIRE
Flight Number -
Tags generated
Created
Modified
Stats Distance 204 nm / 379 km
Max Altitude 20,900 ft / 6,370 m
Waypoints 3
Social Downloads 2
Likes 0
Share VATSIM

Download

Looking for another format? Having issues loading an existing format? Contact us
Advertisement - Login to hide

Notes

Basic altitude profile: - Ascent Rate: 2500ft/min - Ascent Speed: 250kts - Cruise Altitude: 24000ft - Cruise Speed: 420kts - Descent Rate: 1500ft/min - Descent Speed: 250kts Options: - Use NATs: yes - Use PACOTS: yes - Use low airways: yes - Use high airways: yes

Route

FCBB VORAX FCPP

ID Type Via Altitude Latitude Longitude Leg Dist Tot Dist Heading (true) Name
O FCBB APT - 0 ft / 0 m -4.25170˚ 15.25303˚ - 0 nm - MAYA MAYA
VORAX FIX - 20,900 ft / 6,370 m -4.53778˚ 13.57722˚ 101 nm 101 nm 260° / 260° -
O FCPP APT - 0 ft / 0 m -4.81603˚ 11.88660˚ 102 nm 204 nm 261° / 261° POINTE NOIRE

Altitude Profile

Advertisement - Login to hide

Weather


0- 5 10 15 20 25 30 35+ Temperature / ° C

Clouds and Precipitation
Forecast for 2018-05-22 12:00 UTC. Updated 5 hours ago

Ground ~20,000 ft ~40,000 ft Winds

FCBB

Details ICAO FCBB (BZV)
Name MAYA MAYA
Region Republic of the Congo
Timezone Africa/Brazzaville (UTC+1.0)
Stats Elevation 1,048 ft / 319 m (AMSL)
Location -4.251698° 15.253029°
Runways 1
Magnetic Variation 1.288° W

METAR

FCBB 221600Z 24004KT 8000 FEW020 FEW026CB 31/22 Q1010 NOSIG

Decode

TAF

TAF FCBB 221100Z 2212/2318 18006KT 8000 FEW020 BECMG 2213/2215 FEW020 FEW030CB TEMPO 2217/2220 TS BECMG 2220/2222 SCT018 BECMG 2312/2314 SCT020 FEW030CB

Decode

Departure Runways

ID Width Length Bearing (true) Bearing (mag) Surface Threshold Offset Overrun Length
05 148 ft / 45 m 10,849 ft / 3,307 m 49.91° 51.20° Asphalt 0 ft / 0 m 275 ft / 84 m
23 148 ft / 45 m 10,849 ft / 3,307 m 229.91° 231.20° Asphalt 0 ft / 0 m 275 ft / 84 m

FCPP

Details ICAO FCPP (PNR)
Name POINTE NOIRE
Region Republic of the Congo
Timezone Africa/Brazzaville (UTC+1.0)
Stats Elevation 55 ft / 17 m (AMSL)
Location -4.816026° 11.886596°
Runways 1
Magnetic Variation 2.483° W

METAR

FCPP 221600Z 20009KT 9999 SCT013 BKN023 26/22 Q1010 NOSIG

Decode

TAF

TAF FCPP 221100Z 2212/2312 19008KT 9999 SCT013 BKN023 BECMG 2213/2215 SCT015 FEW030CB BECMG 2218/2220 SCT010 BKN020

Decode

Destination Runways

ID Width Length Bearing (true) Bearing (mag) Surface Threshold Offset Overrun Length
17 148 ft / 45 m 8,577 ft / 2,614 m 166.09° 168.57° Asphalt 0 ft / 0 m 328 ft / 100 m
35 148 ft / 45 m 8,577 ft / 2,614 m 346.09° 348.57° Asphalt 0 ft / 0 m 328 ft / 100 m

Popular Alternatives